User: anonymous   Login
Location: ?????
(54.9266°N, 38.5527°E)
Time: 17:31:55
(UTC+00:00)
Language:

Cosmos 1470 Rocket - Orbit

View from above orbital plane
View from above orbital plane
View from above satellite
View from above satellite

Ground track
Ground track

The orbit data is extracted from the following two-line orbital elements,

1 14148U 83061B   24177.56332627  .00000551  00000-0  62236-4 0  9995
2 14148  82.5183  25.8567 0021837 150.3292 209.9168 14.84504728215177
Epoch (UTC): 25 June 2024 13:31:11
Eccentricity: 0.0021837
inclination: 82.5183°
perigee height: 600 km
apogee height: 630 km
right ascension of ascending node: 25.8567°
argument of perigee: 150.3292°
revolutions per day: 14.84504728
mean anomaly at epoch: 209.9168°
orbit number at epoch: 21517

The dashed part of the orbit path shows where the satellite is in the earth's shadow,  

DLR